Theta_e
310 310 310 310 310 310 310 310 310 310 310 310 310 310 310 311 311 311 311 311 311 311 312 312 312 312 312 313 313 313 312 312 312 311 312 313 314 314 315 315 315 315 315 316 318 318 317 316 316 316 316 316 316 317 317 318 321 320 323 322 320 326 326 326 329 320 318 323 319 315 316 317 319 318 316 317 317 317 316 316 317 317 317 317 317 317 317 317
310 310 310 310 310 310 310 310 310 310 311 311 311 311 311 311 312 312 312 313 313 313 313 313 314 314 314 314 314 314 314 314 314 312 313 315 314 313 314 315 315 315 315 316 316 318 318 318 317 316 316 317 317 318 318 319 320 322 324 320 322 328 322 319 322 317 316 319 316 315 315 315 317 316 315 317 317 316 316 316 316 317 317 317 318 317 317 317
310 310 310 310 310 310 310 310 311 311 311 311 311 312 312 312 312 313 313 313 314 314 314 314 315 315 314 315 315 315 315 314 314 314 316 315 315 314 314 315 316 316 315 316 316 316 318 318 318 317 316 317 317 318 319 320 320 320 320 323 329 325 316 315 316 316 317 317 315 314 314 313 315 316 315 316 315 315 316 315 314 316 317 317 317 317 317 317
310 310 310 310 310 310 311 311 311 311 311 312 312 312 312 312 312 312 313 313 314 314 314 314 314 315 315 315 315 315 314 314 315 317 316 315 316 315 313 314 315 316 316 315 315 315 316 317 318 317 316 316 316 318 319 320 321 320 319 326 327 316 316 318 316 317 317 316 314 314 313 313 315 315 314 314 315 316 315 315 315 316 317 317 317 317 317 316
310 310 310 310 311 310 311 311 311 311 311 312 312 312 312 313 313 313 313 313 313 314 314 314 314 314 314 315 315 315 314 316 318 316 315 317 318 315 314 314 314 315 316 315 315 314 315 317 317 317 316 316 315 317 319 319 319 319 319 322 319 314 317 319 317 318 317 316 315 313 314 315 315 314 314 314 315 316 315 315 317 316 317 317 316 316 316 316
310 310 311 311 311 311 311 311 311 311 311 312 312 312 313 313 313 313 313 313 314 313 314 314 314 314 314 314 315 314 314 316 317 315 315 318 317 315 315 315 314 314 314 316 316 314 314 316 317 316 315 315 316 318 318 318 318 320 320 317 317 317 316 318 318 318 317 316 314 314 315 315 314 314 314 314 314 316 316 316 316 316 316 316 316 316 316 316
311 311 311 311 311 311 311 311 311 311 311 311 312 312 312 312 313 313 313 313 313 314 314 314 314 314 314 314 314 314 314 315 315 314 316 318 317 315 315 315 315 314 313 315 316 315 314 315 316 315 315 315 316 316 316 317 317 319 321 316 317 318 316 318 318 317 318 316 315 315 314 312 313 314 314 313 315 317 316 316 316 316 316 315 316 316 316 316
312 312 312 312 312 312 313 312 312 312 312 312 312 312 312 313 313 313 313 313 313 314 314 314 314 314 314 314 314 314 314 314 314 315 316 316 315 315 315 315 315 314 314 313 315 316 314 314 315 315 315 316 315 315 315 315 316 318 320 317 316 317 317 318 318 317 317 316 315 314 312 313 314 314 312 314 317 317 316 316 316 316 315 315 315 315 315 315
312 312 312 313 313 313 313 313 313 313 314 313 313 313 314 313 313 313 313 313 314 313 314 314 314 314 314 314 313 313 314 315 315 315 315 315 315 315 315 315 315 315 314 313 314 314 313 313 314 315 315 315 315 315 315 316 317 317 317 316 315 315 316 316 315 315 315 315 314 313 313 314 315 313 313 315 317 317 317 316 316 316 315 315 315 315 315 315
311 311 311 311 312 312 312 313 313 313 313 313 314 314 314 314 314 314 314 314 314 314 315 314 314 314 314 314 313 313 315 316 315 315 315 315 315 315 315 315 315 315 314 314 314 313 313 313 313 315 315 315 315 315 314 316 317 315 314 314 313 313 314 314 313 313 313 313 314 313 315 315 313 313 315 316 316 316 316 315 315 315 315 315 315 315 315 315
313 313 313 313 313 312 312 312 313 313 313 313 313 313 313 313 313 313 313 313 314 313 313 313 314 314 314 314 313 313 315 315 315 315 315 315 315 315 315 315 315 315 315 314 313 313 312 312 313 315 316 315 315 314 314 315 315 314 313 313 313 312 313 313 312 312 312 313 314 313 314 314 312 312 314 316 316 315 315 315 315 314 315 315 315 315 315 315
316 316 316 316 316 316 316 316 316 315 315 315 315 314 314 314 313 313 313 312 313 312 312 312 312 312 313 313 313 314 315 315 315 315 315 315 315 316 315 315 315 315 315 314 314 313 312 311 313 315 315 315 314 314 314 314 314 313 313 315 315 313 313 313 313 312 312 314 314 312 313 314 314 314 315 315 315 315 314 315 316 315 315 315 315 315 315 315
317 317 318 318 318 318 318 318 319 319 319 319 318 318 317 317 316 315 315 314 314 313 313 312 311 311 311 312 313 315 315 315 315 315 315 316 315 315 315 315 315 315 315 314 314 313 312 311 311 313 314 314 315 314 313 313 312 314 313 314 314 314 315 314 313 313 312 313 313 313 313 315 316 314 314 315 315 314 313 315 317 317 317 316 316 315 316 316
315 315 316 316 316 316 316 317 317 317 317 318 317 318 318 318 318 318 318 317 317 316 316 315 313 310 309 312 313 313 314 314 314 315 315 315 315 315 315 315 315 315 315 314 314 314 313 312 312 313 314 314 315 314 315 314 315 316 312 313 315 315 316 314 311 311 312 313 312 314 314 313 315 313 313 315 315 314 314 315 317 317 318 317 317 317 317 318
313 313 313 313 313 313 313 313 313 313 313 313 314 314 314 315 315 315 316 316 316 317 317 317 315 312 310 312 313 313 313 313 314 315 315 315 315 315 315 315 315 315 315 314 314 314 313 313 314 314 314 315 314 314 318 320 323 322 313 315 318 316 315 314 311 310 312 313 310 313 316 314 314 314 314 315 314 314 313 314 316 316 318 318 318 318 318 318
314 313 313 312 312 312 312 312 312 312 312 312 312 312 313 313 313 313 313 313 313 314 315 316 315 312 310 312 313 313 314 314 315 315 315 315 315 316 316 315 315 315 315 314 314 314 313 313 314 314 313 314 314 316 319 319 324 323 314 315 318 316 314 314 314 310 310 312 311 312 315 315 315 314 315 315 314 313 313 314 315 316 317 317 318 318 318 318
317 316 315 314 314 313 313 313 313 313 313 314 314 314 314 313 314 313 313 313 313 312 313 314 313 312 312 313 313 314 314 314 314 315 315 315 315 316 316 316 315 315 314 314 313 312 313 313 313 315 314 314 315 317 318 317 319 318 314 315 317 316 314 314 317 311 308 311 313 313 313 313 314 313 313 314 314 312 311 313 314 316 316 316 317 317 317 318
321 319 318 316 315 314 314 313 314 314 315 314 314 315 315 316 316 314 314 313 313 312 312 313 313 313 314 314 313 314 314 314 314 315 316 315 316 316 316 316 315 314 313 312 312 312 312 311 312 316 315 314 315 315 316 316 316 315 316 317 316 316 314 314 316 313 311 313 313 314 313 312 312 312 311 313 314 311 310 312 313 313 314 314 315 316 316 317
323 323 321 319 317 315 314 314 315 315 315 315 314 315 315 316 315 315 315 314 313 314 314 314 314 315 316 314 313 313 314 314 315 315 315 316 316 316 316 315 314 313 312 312 313 311 312 312 313 316 316 314 314 313 314 315 314 314 315 316 315 314 314 314 313 312 312 312 312 312 312 311 312 311 311 311 312 312 310 311 311 311 312 312 313 314 315 316
324 324 323 323 321 318 317 316 316 316 315 316 315 315 314 314 314 315 315 314 314 315 315 315 315 315 315 314 313 313 313 314 314 314 315 315 315 315 315 313 313 312 312 316 317 311 311 315 316 316 316 314 314 313 313 313 313 313 313 314 314 313 312 312 312 311 310 310 312 313 312 311 311 311 311 311 312 311 311 311 311 311 312 312 312 313 314 315
324 324 324 324 323 322 320 318 318 318 317 317 316 313 312 311 313 314 313 313 314 314 314 314 314 314 314 314 314 314 314 314 314 315 315 315 315 315 314 313 313 313 312 313 314 311 311 314 315 316 315 314 313 313 312 312 312 313 314 314 313 313 312 312 312 311 310 310 311 313 312 311 311 311 311 311 312 311 311 311 312 312 312 312 313 313 314 315
325 325 324 324 324 324 322 321 320 319 319 318 316 313 310 310 311 311 310 312 314 313 314 313 313 313 314 314 314 313 314 314 314 315 315 315 315 315 314 314 315 315 313 311 313 313 313 313 313 313 313 313 313 312 312 313 313 314 314 314 313 313 312 312 312 313 311 312 315 315 313 311 311 312 311 311 311 311 312 312 312 313 312 312 313 314 314 314
324 324 324 324 324 324 323 323 321 320 320 318 317 314 311 309 310 310 310 311 313 314 315 315 314 313 314 315 314 313 313 313 313 314 315 314 314 314 313 313 315 315 315 314 315 315 315 316 313 310 310 312 313 312 312 313 313 314 314 313 313 312 312 313 314 315 313 312 316 315 312 311 311 311 312 311 311 312 312 313 313 313 312 313 313 314 314 313
322 321 321 322 323 323 323 323 322 322 322 319 318 316 311 311 310 310 310 310 312 314 316 316 313 313 315 314 313 313 312 312 313 313 314 314 314 314 312 312 314 315 314 314 314 314 316 316 312 310 311 312 313 313 313 313 312 314 314 313 313 313 313 313 313 315 314 313 315 314 312 314 314 314 313 312 311 311 311 311 312 312 312 313 313 313 314 313
320 321 321 320 321 322 322 323 322 323 322 319 319 317 313 312 311 311 310 311 315 315 314 315 313 313 314 313 313 312 311 312 312 313 313 314 314 313 312 312 313 315 314 313 314 313 313 312 310 313 314 313 313 313 314 315 313 313 314 313 312 313 313 313 313 313 314 317 316 314 315 317 318 318 315 314 314 313 311 311 311 311 312 313 312 314 314 313
320 322 323 322 322 321 321 322 322 323 322 320 320 318 315 313 312 312 311 314 320 318 314 314 313 314 313 312 312 311 313 314 312 312 312 313 314 313 312 312 312 313 314 312 312 312 313 312 311 315 317 315 314 313 314 315 312 313 318 319 313 312 313 314 314 314 318 321 316 315 318 317 317 318 318 316 317 316 314 313 312 310 311 312 313 314 315 315
319 322 324 323 322 321 321 322 322 323 323 321 320 318 315 313 311 311 313 319 324 319 315 314 313 313 312 311 312 312 317 317 312 312 313 313 313 312 313 312 311 311 310 311 312 314 315 312 313 315 315 316 315 314 314 313 313 316 320 322 318 315 316 315 314 314 317 318 315 316 318 317 316 317 318 317 316 316 315 316 315 311 311 313 313 314 315 317
320 321 323 323 322 322 322 323 323 323 323 322 321 318 315 314 311 311 318 327 326 318 316 314 312 313 313 311 312 311 313 313 311 313 312 312 313 312 312 312 312 312 310 311 314 314 314 315 316 315 313 315 315 314 316 314 314 317 317 317 318 317 317 316 316 316 316 317 316 315 316 318 318 316 318 315 314 317 316 315 315 313 313 313 314 315 316 317
322 320 321 322 323 323 323 324 324 323 323 322 320 318 314 313 312 312 320 326 322 316 315 314 313 313 312 312 311 310 310 310 311 312 311 312 313 311 312 311 310 312 310 310 314 312 312 314 313 315 316 315 313 315 318 318 315 315 315 316 317 318 318 318 319 318 317 318 318 317 317 318 318 318 319 315 315 319 317 315 314 312 312 313 314 316 317 317
323 322 322 323 324 324 323 323 323 322 323 322 320 317 312 313 313 316 324 323 319 317 314 312 314 312 311 313 313 311 310 310 310 311 311 311 312 310 311 311 309 314 314 311 313 312 310 309 309 312 314 313 315 315 312 315 314 311 316 321 321 321 321 322 322 318 318 319 319 321 319 316 318 318 319 319 319 319 317 315 316 314 312 313 315 317 317 317
321 321 321 321 322 322 322 322 321 321 322 321 320 316 313 316 317 322 328 321 317 320 314 312 314 314 314 315 316 314 312 310 309 311 313 312 312 311 310 311 310 316 319 314 313 313 309 309 312 313 310 309 316 314 308 309 310 311 319 324 321 322 322 322 322 319 318 320 320 322 318 315 317 317 317 320 318 317 317 318 324 324 315 313 316 317 316 317
319 319 318 319 319 320 320 320 320 321 321 321 320 316 317 321 319 321 324 320 321 322 314 314 314 316 318 314 317 319 314 312 309 310 315 315 314 314 313 315 315 317 320 318 318 317 314 313 313 312 310 310 315 317 314 312 311 313 319 320 318 320 320 320 320 319 319 320 317 316 316 315 316 316 316 317 317 318 317 314 318 322 315 313 316 317 316 317
317 317 317 317 318 319 319 319 319 319 320 321 318 316 319 323 322 322 322 321 324 320 314 316 315 316 316 314 321 322 313 315 313 310 314 313 312 315 315 316 317 316 317 318 319 319 318 316 311 311 312 312 314 316 316 317 315 314 317 318 318 320 320 319 321 320 319 319 315 312 315 316 316 317 318 316 314 315 313 310 311 313 313 314 316 316 316 317
316 316 316 316 316 317 317 318 318 318 320 320 317 317 320 322 322 322 322 323 324 320 317 317 315 316 315 315 324 322 313 319 318 311 313 312 311 316 317 314 312 314 315 314 316 318 318 317 314 314 316 314 313 314 316 320 317 313 316 320 318 321 324 322 323 322 319 320 317 312 315 319 317 318 320 317 312 310 310 311 311 311 312 313 314 315 316 316
314 314 315 315 315 316 315 316 317 318 320 319 316 319 321 321 321 320 322 323 323 320 319 317 315 318 318 318 323 320 314 319 318 312 314 314 314 318 320 316 312 312 314 314 317 317 315 318 317 313 312 313 313 313 315 320 319 313 316 320 316 319 325 322 321 322 319 320 318 314 318 320 316 314 316 315 313 311 310 310 309 309 311 312 312 314 316 316
312 312 313 313 314 314 314 315 316 318 320 317 317 320 320 320 321 322 321 319 318 318 319 319 317 318 320 321 323 319 313 314 315 314 314 314 315 317 319 319 313 311 312 313 318 318 316 319 319 311 309 311 310 310 312 315 317 315 315 317 315 316 320 318 319 320 317 318 318 317 318 317 315 316 316 317 317 314 313 312 310 309 310 311 312 313 314 315
310 311 311 312 313 313 314 315 316 318 318 315 317 320 320 319 320 322 320 315 315 318 318 319 319 320 322 322 322 321 316 315 315 314 316 317 316 316 318 318 313 310 311 312 316 318 316 316 317 314 313 311 305 306 310 309 311 317 318 316 314 315 316 317 319 319 317 317 318 317 318 316 316 318 318 320 321 319 321 319 313 309 308 308 309 311 312 312
308 309 310 311 311 313 314 314 316 318 316 314 317 319 319 319 317 317 318 314 315 317 317 319 320 320 321 320 321 323 321 319 318 316 318 319 317 317 318 317 312 309 310 310 313 317 316 314 317 316 315 313 307 309 314 308 307 314 316 314 314 317 318 318 319 319 317 318 317 317 318 316 316 317 316 319 321 321 322 319 315 314 309 306 309 311 312 312
306 307 308 310 311 312 313 314 316 317 314 315 317 318 318 319 316 315 316 316 316 317 318 318 319 319 320 319 319 321 321 321 319 318 319 319 317 316 316 315 314 310 308 309 312 317 315 314 316 317 314 313 312 313 317 316 311 310 310 312 313 314 317 318 318 319 317 318 318 319 319 317 319 322 320 319 321 321 318 316 317 316 309 306 309 311 311 312
305 306 308 310 312 312 312 313 315 315 315 316 317 317 317 317 316 315 316 316 316 317 318 318 319 318 319 318 318 319 321 320 319 319 319 318 318 318 316 316 316 313 310 310 312 315 316 315 315 317 315 313 313 316 319 321 318 314 313 315 313 313 316 316 315 317 317 316 317 319 319 318 320 324 321 316 317 318 314 314 316 313 308 308 310 310 311 312
305 307 308 309 312 313 312 313 314 314 315 317 316 316 316 315 315 314 315 315 315 316 316 316 318 318 317 318 318 317 319 319 318 318 318 319 319 319 318 315 315 316 313 314 316 317 319 319 317 318 318 315 315 317 319 319 319 317 315 315 313 313 315 315 315 316 316 316 316 317 318 318 317 320 317 313 315 315 313 313 314 312 310 311 312 312 312 312
305 307 309 310 312 313 314 313 314 313 314 316 316 315 315 315 315 314 314 314 314 314 314 315 316 316 316 317 317 316 317 318 319 318 318 319 318 318 316 312 312 315 315 318 320 318 318 319 317 317 317 317 316 316 317 316 314 314 313 313 314 313 313 314 315 316 316 316 315 316 317 317 317 318 315 314 315 314 311 312 312 310 310 312 314 313 313 312
303 306 309 311 312 313 314 315 314 314 313 314 314 314 314 314 314 315 314 313 313 313 314 315 315 315 315 315 315 317 317 318 318 318 318 319 318 317 314 312 312 314 315 318 319 315 314 315 316 317 317 317 316 316 315 313 312 313 313 312 313 313 313 314 314 314 316 316 316 318 317 317 321 323 317 315 314 311 309 310 309 308 310 312 313 313 314 313
302 303 304 307 312 313 314 315 315 314 313 313 313 314 314 313 313 314 314 313 314 314 314 315 314 314 315 315 315 316 316 316 316 315 316 317 317 316 313 313 314 315 315 317 318 315 315 316 317 317 317 316 316 317 315 312 311 313 313 312 312 313 313 314 314 314 315 315 316 317 317 318 322 323 317 314 315 312 311 311 309 309 311 312 312 312 313 313
300 301 300 302 307 310 311 313 314 314 313 313 314 313 313 313 312 313 313 312 312 313 314 315 313 312 312 313 313 314 314 315 315 315 316 317 317 314 312 311 312 313 314 314 314 314 314 317 318 317 316 316 315 315 314 314 313 312 313 313 312 312 313 313 314 314 314 315 315 316 316 316 317 317 315 314 314 313 313 312 311 311 311 312 312 312 311 311
299 301 301 302 303 305 307 310 311 312 312 312 313 313 313 313 312 312 312 312 312 312 312 312 311 310 311 311 312 312 313 313 313 313 314 316 317 312 307 307 309 309 311 312 311 312 313 315 316 315 316 315 314 314 314 314 314 313 313 314 313 313 313 313 314 314 314 315 315 315 316 315 315 315 314 314 313 313 313 312 311 311 311 312 311 310 309 308
298 300 302 304 305 305 306 307 308 310 310 311 312 312 312 313 312 311 311 311 311 311 311 311 311 312 312 311 311 312 312 312 312 312 312 312 310 306 303 305 307 306 307 308 308 311 313 313 314 314 314 314 314 314 314 314 313 313 313 314 314 313 313 312 313 313 313 315 314 315 315 315 315 314 313 313 313 312 312 312 312 312 311 310 309 307 306 304
297 298 300 302 303 304 306 305 304 306 307 307 308 309 310 310 310 311 311 310 309 309 311 311 309 308 307 307 309 310 310 312 311 310 309 305 302 302 303 305 305 303 304 304 304 308 311 311 312 313 313 313 314 313 314 314 313 313 314 314 314 314 313 313 312 312 312 313 313 313 314 314 313 313 313 313 312 312 312 311 310 308 305 303 303 302 299 298
296 297 299 300 300 301 302 301 300 301 303 304 305 306 308 308 308 309 309 310 309 309 311 310 305 302 301 302 305 306 306 309 308 305 304 301 300 302 303 304 304 303 302 301 302 305 308 309 311 311 311 312 313 313 313 313 313 313 313 313 313 314 313 313 313 313 313 313 313 313 313 313 312 311 310 308 305 305 305 305 302 299 297 297 297 296 295 295
296 296 297 298 298 298 298 298 299 299 300 301 303 304 306 306 307 307 306 307 308 308 309 307 301 299 300 300 302 302 303 304 305 303 301 299 300 302 302 302 304 302 300 301 303 305 307 308 309 309 309 310 311 312 312 312 312 312 312 312 313 313 314 313 313 313 313 313 313 312 313 314 309 303 301 299 297 297 298 298 296 294 294 295 294 294 294 294
295 295 296 296 296 297 297 297 298 299 299 301 302 303 305 305 303 302 302 302 304 305 305 302 298 298 299 299 299 300 301 301 300 300 299 298 299 300 300 300 301 300 300 301 304 304 305 306 306 307 307 308 309 311 312 311 310 310 310 311 312 312 313 312 312 313 313 313 313 314 313 309 300 295 295 295 294 294 294 295 295 293 293 294 293 294 294 294
294 294 294 295 295 296 296 296 297 298 298 298 300 301 301 300 298 298 300 301 301 300 298 297 296 297 297 297 298 299 299 298 297 297 297 298 298 298 298 298 299 299 300 301 302 303 304 304 305 306 306 306 307 309 309 309 308 309 310 311 312 312 312 313 312 311 310 309 309 307 303 297 294 293 294 294 293 293 293 294 294 293 293 293 293 293 293 293
Wind_Speed
6 6 5 5 5 5 5 5 6 6 6 6 6 6 6 6 6 6 6 7 7 8 8 9 9 10 10 11 12 12 13 14 13 15 14 9 8 9 10 11 10 8 6 5 4 3 3 5 5 5 4 4 3 3 4 5 6 3 2 2 3 3 4 5 7 6 3 4 5 8 7 4 6 9 9 9 12 16 17 18 18 19 22 24 25 23 20 18
6 6 6 6 6 6 5 5 5 5 5 6 6 6 6 6 6 7 7 7 7 7 8 8 10 10 11 12 12 14 14 15 16 15 8 5 10 10 7 10 11 10 7 5 4 3 4 5 6 6 6 5 3 4 4 5 8 5 3 2 5 5 6 7 7 6 4 5 8 13 12 6 8 10 7 7 11 14 12 14 16 20 24 25 28 27 26 24
7 7 7 7 7 7 6 6 6 6 6 6 6 6 6 7 7 7 8 8 8 9 9 10 11 11 12 13 14 15 15 17 16 8 2 8 14 11 6 6 9 12 10 8 6 4 5 6 6 6 7 6 5 5 4 5 7 6 4 2 7 8 6 10 12 13 13 12 11 13 10 6 12 12 7 7 12 12 11 13 14 19 26 26 27 28 28 27
9 8 8 8 8 8 8 8 7 7 7 7 8 8 8 8 8 9 9 9 9 10 10 11 12 13 14 14 16 16 16 17 7 2 7 14 12 9 7 5 6 10 12 10 8 7 6 7 7 7 7 6 6 6 6 8 8 5 6 5 6 5 4 13 17 17 17 15 11 11 7 8 16 14 12 11 9 9 13 19 19 22 26 24 25 28 28 28
10 10 10 10 10 9 10 9 9 9 9 9 9 10 10 10 10 11 11 11 12 11 12 13 13 14 15 16 16 16 15 10 1 2 14 12 8 8 7 6 5 6 10 11 10 9 8 9 9 7 7 5 5 4 5 12 10 4 8 13 11 6 5 15 17 15 16 13 11 11 8 12 16 13 18 14 9 14 17 19 21 23 24 23 24 26 27 29
11 11 11 11 11 11 11 11 11 11 11 11 11 12 12 12 13 13 13 14 14 14 14 14 15 15 16 17 17 17 11 3 5 12 15 8 6 8 7 9 7 5 7 10 12 10 10 11 10 8 6 4 6 7 6 12 13 5 7 13 17 14 11 19 19 16 17 13 12 11 12 16 14 14 19 16 21 32 31 26 27 29 27 24 24 25 27 29
12 12 12 13 13 13 13 13 13 13 13 13 13 14 14 14 15 15 15 15 16 16 16 16 16 16 17 18 18 18 10 10 15 16 11 7 8 10 11 11 9 7 7 9 12 13 12 12 13 10 5 3 5 8 7 9 12 8 6 7 15 18 18 25 25 22 21 18 19 17 15 17 15 14 14 18 35 43 37 35 35 34 31 27 26 27 29 30
13 14 14 14 15 15 15 15 15 15 15 15 15 16 16 16 16 17 17 16 17 17 17 17 17 17 17 18 19 17 15 16 16 11 9 9 11 14 15 13 11 10 8 8 11 13 13 14 16 12 5 5 6 6 6 5 7 8 8 8 10 14 19 25 25 24 23 21 22 17 16 23 26 19 13 29 49 46 38 38 34 29 30 30 29 30 30 31
14 15 15 16 16 16 17 17 17 17 18 17 17 18 18 18 18 19 19 18 18 18 19 18 17 18 17 19 18 16 18 17 12 10 12 14 16 18 18 16 13 12 10 10 11 13 15 16 18 15 9 8 7 6 5 4 5 8 12 11 9 13 19 22 22 22 19 19 18 10 15 28 29 16 15 38 47 38 32 28 22 19 22 25 27 29 30 32
14 15 15 16 16 17 17 18 19 19 19 19 19 19 20 20 20 21 21 20 20 20 20 18 19 18 17 20 16 11 17 17 13 16 17 18 20 20 20 17 15 14 12 13 12 14 17 16 15 14 13 9 6 6 6 6 5 6 10 12 13 16 21 21 20 21 15 15 18 11 14 27 23 5 12 37 36 26 26 21 17 16 20 22 23 26 28 31
13 14 14 15 16 17 18 18 19 20 20 20 20 20 21 21 21 22 22 21 21 21 20 19 19 19 19 21 17 15 21 22 19 22 21 21 22 21 21 18 17 15 14 14 13 14 16 16 13 9 8 6 5 5 6 9 8 8 9 10 15 14 20 23 18 20 13 11 19 16 12 21 14 3 17 41 38 29 30 29 26 23 25 26 24 26 27 30
14 14 14 15 16 17 18 19 20 20 21 21 21 21 21 22 22 23 23 22 22 21 21 19 18 19 18 21 26 26 26 25 23 24 22 23 23 23 23 20 19 16 15 15 13 14 15 16 15 11 8 4 3 2 4 7 6 9 7 6 13 8 14 23 16 16 11 8 13 10 5 12 7 11 29 43 40 31 30 33 35 32 32 31 28 28 29 31
14 14 15 15 16 16 17 19 20 21 22 22 22 22 22 23 23 23 23 22 22 21 21 19 18 18 15 21 31 30 26 26 26 25 24 25 25 25 25 23 20 17 16 15 14 15 15 15 15 15 13 8 4 4 5 5 5 10 4 1 9 7 9 13 4 5 8 6 8 8 2 9 9 21 35 39 36 28 25 32 36 35 34 33 31 30 30 30
13 14 14 15 15 16 17 18 20 21 22 22 22 22 22 22 22 23 23 22 22 21 21 19 18 17 15 22 32 30 27 28 28 28 26 26 26 26 26 24 21 18 16 15 16 16 14 13 12 13 13 12 9 9 7 6 4 5 3 1 3 3 8 8 3 3 4 5 11 10 5 10 10 24 37 36 31 23 21 30 34 33 34 33 33 32 30 28
12 12 13 14 15 15 17 18 19 21 22 22 22 23 23 22 22 22 22 22 21 21 21 19 18 15 13 21 29 26 26 28 28 26 24 23 24 25 24 22 20 18 16 15 16 16 14 10 9 9 9 11 11 7 4 4 3 2 3 4 1 3 7 12 9 6 9 7 10 11 6 9 10 23 36 32 24 20 21 28 32 32 33 33 34 33 31 30
10 11 12 13 13 15 16 17 19 20 21 21 22 23 23 23 22 22 21 21 20 20 19 17 18 14 8 15 23 23 25 27 25 23 22 23 23 23 22 19 17 16 15 16 15 14 12 8 8 7 6 7 6 1 4 4 5 2 2 5 4 5 4 8 12 10 13 7 6 9 7 7 7 16 28 26 19 18 20 27 31 33 35 34 35 34 34 35
9 9 10 11 12 14 15 16 18 19 20 21 22 22 22 22 22 21 20 19 18 17 15 13 13 11 10 15 21 26 28 26 23 20 20 21 21 21 21 19 16 15 14 14 13 10 9 9 7 4 4 4 2 5 2 3 6 3 2 4 5 7 5 4 10 9 6 6 6 8 9 11 11 13 23 28 26 18 17 27 31 33 36 35 36 36 39 41
8 9 10 10 11 12 14 15 17 18 19 20 21 21 21 21 19 18 18 17 14 10 9 10 8 4 10 16 18 22 22 18 16 15 15 16 18 20 20 18 15 13 11 9 8 9 9 7 5 1 2 3 2 5 3 7 9 7 5 4 4 5 6 6 8 7 2 4 7 5 9 15 15 14 22 32 34 26 22 28 33 35 36 37 39 41 45 47
7 8 9 10 11 12 13 15 16 17 19 18 18 20 19 17 15 13 12 10 8 5 4 9 12 5 7 11 11 13 14 14 15 16 17 16 16 18 18 16 13 12 9 5 5 10 11 4 4 3 3 8 8 8 11 15 13 10 6 5 6 6 7 8 11 10 5 8 7 7 14 17 15 15 18 28 35 32 29 31 33 34 36 38 39 43 48 50
7 8 9 10 11 12 13 15 16 17 19 18 18 18 14 11 8 7 7 10 12 12 12 14 18 18 16 15 15 15 16 18 20 21 20 18 16 15 16 13 9 9 7 5 5 8 10 5 3 6 11 15 13 12 16 17 11 5 3 6 7 7 10 10 12 12 3 5 8 9 17 18 16 16 16 25 29 26 27 29 31 33 34 37 38 44 48 50
8 8 9 10 11 12 13 14 15 16 18 18 19 16 10 8 5 6 11 15 19 20 23 24 24 27 28 26 24 21 18 18 22 24 19 17 15 12 13 12 7 5 5 5 4 3 6 7 7 13 17 15 10 10 13 11 7 6 5 8 7 7 13 13 13 14 3 2 8 8 16 20 16 15 16 21 19 18 25 27 29 33 33 36 38 44 49 51
9 9 9 10 9 11 11 13 14 14 16 16 17 15 11 11 9 9 12 13 21 24 24 27 29 33 35 33 33 29 20 15 21 24 18 16 17 12 10 10 6 3 4 5 2 1 4 6 11 18 15 7 3 4 5 6 7 7 5 6 7 7 11 11 11 12 3 2 7 7 14 18 15 15 15 17 18 20 31 35 35 35 32 34 39 45 49 50
11 10 11 11 9 10 10 11 12 13 15 14 15 16 14 14 12 12 11 8 17 22 23 28 30 34 35 34 36 33 25 18 19 23 21 19 18 14 11 9 4 3 5 6 7 6 5 7 14 19 10 4 7 3 4 3 5 6 6 6 8 7 7 9 6 6 3 3 7 9 14 15 13 14 13 20 28 26 33 40 41 40 37 39 46 49 49 49
13 13 13 13 11 10 10 11 11 12 14 13 14 15 15 14 13 13 11 6 9 14 21 26 24 27 31 29 27 27 25 21 17 18 21 22 18 11 9 8 5 3 6 11 13 12 10 7 9 12 8 8 10 7 4 5 6 7 9 8 11 12 12 11 5 6 6 4 6 8 14 13 9 12 11 15 25 23 26 32 34 41 44 44 48 52 51 52
15 15 15 15 14 13 12 11 9 12 13 12 14 15 15 14 13 13 10 4 5 7 12 15 13 16 20 19 17 14 13 15 18 18 16 20 20 10 5 8 7 5 10 11 10 11 11 8 6 6 7 9 9 8 7 8 9 8 8 12 18 17 13 12 8 7 6 5 4 4 9 11 5 10 10 8 10 12 15 17 23 37 44 41 43 49 51 49
17 16 15 16 16 15 13 10 9 12 12 11 13 15 14 13 11 12 7 2 4 4 4 5 4 4 5 8 9 6 2 7 14 20 17 17 22 15 4 6 6 5 8 7 4 5 6 8 8 8 8 9 7 7 8 10 9 9 6 12 16 13 9 11 8 4 2 4 3 3 2 11 6 6 10 9 8 10 10 10 17 30 36 35 40 46 47 45
18 17 15 16 16 15 13 11 11 11 10 11 13 14 13 10 8 10 6 3 5 2 3 3 3 1 1 4 8 9 3 4 3 9 16 16 20 18 7 4 4 3 4 3 3 4 3 4 6 8 8 6 6 8 9 11 8 8 4 8 9 8 9 8 6 4 4 3 3 1 4 7 14 7 8 11 10 9 11 12 16 23 29 35 37 40 43 44
19 18 17 16 16 15 13 12 11 10 9 10 12 12 11 8 7 7 4 3 5 2 3 3 4 0 1 6 13 9 1 3 2 1 8 12 15 12 6 5 4 3 3 5 5 4 4 5 7 8 6 5 8 9 6 11 7 6 2 4 6 6 6 5 5 5 2 4 3 3 5 2 14 8 4 4 8 8 12 16 16 17 24 32 34 37 39 39
17 18 18 17 16 15 14 12 10 8 8 8 9 10 8 6 6 6 3 3 3 2 2 2 3 0 2 6 11 7 3 5 2 1 3 6 12 7 2 4 4 4 4 5 8 6 2 4 6 8 6 6 9 5 6 12 8 3 5 5 4 3 3 4 3 3 2 4 5 6 6 3 13 8 5 4 3 7 12 13 12 14 22 29 31 33 34 34
15 16 17 17 17 17 15 13 10 7 6 6 7 7 6 4 3 2 4 4 2 1 1 1 1 0 2 4 2 5 3 2 2 3 3 4 9 7 1 2 1 3 4 4 7 9 4 1 2 5 6 6 4 1 3 7 5 3 6 5 6 5 4 4 1 3 1 7 6 11 13 8 9 6 4 3 4 7 8 7 8 12 20 29 31 30 29 30
16 16 17 18 19 18 17 15 11 7 5 5 6 5 4 2 3 2 7 2 1 2 1 0 1 2 3 2 2 2 1 3 1 5 3 2 4 4 1 1 0 1 3 5 6 7 4 2 2 5 6 5 6 3 1 2 3 4 3 3 3 4 4 4 4 4 1 8 5 11 13 11 10 6 1 5 6 5 6 6 8 10 15 24 26 25 25 26
18 18 18 18 19 19 18 17 13 9 7 5 4 2 2 2 1 6 5 4 2 2 1 0 2 2 3 2 1 3 1 2 3 5 4 2 3 3 4 5 4 0 4 4 3 5 3 6 5 2 5 7 6 2 3 4 3 5 3 3 1 4 3 3 3 1 4 8 4 6 7 7 13 9 4 10 11 10 9 8 11 10 14 23 24 22 23 24
20 19 19 18 18 18 18 18 16 14 10 5 4 2 4 2 6 5 2 2 2 1 2 1 1 1 3 2 3 3 1 3 4 4 2 3 2 4 5 5 6 3 5 3 1 4 4 5 3 3 4 9 10 5 3 2 4 7 5 6 4 2 2 4 3 2 5 7 3 2 4 5 9 6 8 14 14 13 10 12 19 20 20 25 25 24 27 29
23 22 22 20 19 20 18 17 16 14 11 8 6 3 2 7 7 2 3 5 3 3 1 2 3 2 1 2 4 3 2 4 4 4 1 2 1 3 4 5 5 3 2 2 2 2 4 8 5 7 4 10 13 12 10 5 4 7 6 6 5 5 5 4 3 5 8 6 3 1 4 4 4 2 7 10 9 11 11 15 20 23 26 28 28 29 32 34
25 24 24 23 23 22 18 17 16 13 13 12 8 3 5 9 6 2 4 5 2 4 4 2 2 2 3 3 4 3 5 5 1 4 2 3 3 3 3 4 7 5 2 3 2 3 5 9 6 4 2 10 11 10 8 6 1 4 4 4 5 6 5 4 7 7 5 4 4 2 4 6 4 5 8 8 10 12 12 12 12 17 24 25 28 32 35 38
26 26 26 27 27 22 18 17 15 16 19 14 6 4 10 8 4 3 3 2 2 2 2 4 1 2 4 3 3 3 4 3 1 1 2 3 3 5 5 4 7 10 7 5 3 2 4 7 4 1 1 4 1 3 2 3 2 2 3 4 4 3 6 5 8 3 0 4 6 4 7 7 5 9 7 2 6 8 9 10 10 15 21 21 25 32 35 37
26 26 28 30 29 22 18 17 15 21 24 14 5 7 8 5 6 6 3 2 2 3 1 3 3 4 4 2 3 3 1 2 2 2 2 2 3 5 5 5 7 13 15 11 4 3 4 7 4 2 2 2 4 3 2 2 3 5 3 5 1 2 2 3 3 1 2 8 6 5 13 11 5 8 5 7 8 7 7 8 7 11 15 16 22 26 26 29
22 23 28 32 29 23 20 17 17 24 22 9 8 12 6 4 8 9 7 4 1 1 3 5 5 4 4 5 4 3 3 3 3 3 3 3 4 5 5 4 6 12 17 13 4 2 1 5 5 1 2 4 4 1 2 3 2 5 3 2 2 1 3 2 3 3 6 10 6 7 15 13 7 8 7 7 9 9 9 6 5 8 10 11 15 19 22 25
16 16 20 20 17 18 21 19 22 26 16 4 9 11 5 6 8 10 13 11 5 4 5 6 5 4 5 6 5 3 4 5 3 3 4 4 5 5 5 2 3 6 11 11 5 2 1 3 5 1 1 2 4 1 3 2 2 1 1 3 1 2 3 3 3 2 5 9 8 8 11 9 7 7 5 7 9 7 8 6 4 6 9 13 15 18 23 27
10 7 10 7 5 11 18 22 25 22 10 5 10 8 4 5 7 11 17 14 6 5 5 5 5 6 7 8 8 5 4 5 5 4 4 4 5 4 3 2 2 1 4 5 4 2 1 3 5 1 1 2 1 3 5 4 2 1 2 3 3 2 1 1 2 1 3 7 8 8 9 8 6 4 5 7 8 6 6 5 5 6 10 16 18 20 25 28
6 4 7 7 7 11 19 21 17 11 5 6 9 8 7 7 6 8 13 15 11 9 7 5 5 6 7 8 8 6 3 4 5 6 4 5 7 5 3 5 7 4 2 3 1 2 1 2 2 1 4 6 6 5 6 6 4 4 4 4 5 5 3 5 6 4 4 5 7 9 10 7 4 5 5 5 5 6 7 5 6 9 15 21 25 27 27 27
8 5 5 7 9 14 21 16 9 7 5 6 8 8 7 7 8 8 9 12 10 7 7 5 5 7 7 8 8 7 5 4 5 6 5 6 9 8 5 8 10 6 3 1 4 4 2 2 3 4 6 9 10 6 7 7 6 5 5 5 6 5 4 6 8 6 5 6 7 8 11 5 3 10 12 6 6 7 7 7 6 8 14 19 25 31 33 34
10 11 9 6 6 17 19 8 6 7 4 5 8 9 8 5 5 6 6 7 7 5 5 5 6 8 8 8 8 7 5 4 6 7 6 6 7 10 11 11 8 3 3 2 4 2 3 2 3 5 4 5 10 11 7 6 5 6 5 7 8 9 9 10 9 7 7 9 7 9 11 5 3 9 14 13 13 10 9 10 7 8 15 20 25 30 35 40
8 15 16 9 11 19 15 5 6 8 6 7 7 9 11 8 6 8 7 5 5 4 4 4 6 8 7 6 6 5 4 5 6 7 8 6 5 9 13 14 10 4 1 4 4 3 3 3 3 3 4 4 6 7 6 2 4 4 5 8 11 13 14 13 7 4 7 10 11 11 11 6 4 8 12 16 20 17 16 15 11 11 18 23 26 29 31 36
6 11 14 13 17 20 13 7 7 5 6 10 10 10 11 8 9 16 13 7 8 6 3 4 4 3 3 3 5 6 6 6 6 4 5 4 3 3 6 14 15 9 10 13 8 3 4 4 4 4 7 8 8 7 7 4 2 2 4 8 12 15 16 12 7 6 9 11 13 13 12 9 7 9 12 17 22 22 22 20 13 10 14 22 26 28 28 28
4 4 5 5 12 17 17 16 10 3 3 7 8 8 11 11 10 13 11 9 13 12 7 6 6 4 2 3 4 7 7 8 7 5 5 4 3 2 9 17 14 9 11 14 9 2 2 3 7 11 11 11 12 12 11 8 5 6 6 8 9 10 13 11 9 10 11 11 13 13 14 15 13 12 15 18 19 21 22 21 15 13 18 24 22 18 17 19
3 3 2 2 4 9 13 15 11 4 2 4 3 3 8 10 7 6 7 7 8 9 6 6 7 6 5 4 5 6 6 8 9 8 7 4 2 5 13 14 11 14 15 13 12 4 3 4 8 15 15 15 17 18 16 14 12 13 13 13 12 11 11 11 11 13 11 12 13 12 13 16 14 11 14 16 16 17 18 20 22 24 23 19 16 16 17 18
4 4 3 2 2 3 5 6 6 4 3 3 2 3 5 8 7 5 4 2 1 3 3 4 3 1 2 2 3 2 2 4 5 3 2 3 4 6 10 6 4 13 14 10 12 6 3 5 8 13 16 16 17 19 18 17 16 15 16 18 19 18 17 16 17 17 14 14 15 14 16 18 15 12 15 16 15 15 16 21 26 27 27 24 22 20 20 23
6 6 7 5 3 3 4 5 5 3 3 3 2 3 8 12 12 6 1 2 3 2 4 2 2 5 4 3 1 1 3 3 4 1 3 4 4 3 5 4 2 8 11 7 8 4 4 4 5 10 14 14 15 18 19 19 19 18 18 18 19 20 22 23 23 21 19 20 20 19 22 23 17 13 11 10 13 16 19 24 26 28 28 26 24 23 24 25
7 4 5 6 5 5 7 8 5 2 3 4 4 5 6 9 10 4 0 2 4 2 1 1 3 3 1 1 1 2 3 2 2 2 1 3 4 1 1 3 3 5 7 4 3 4 4 3 6 8 9 11 13 15 16 18 19 18 17 17 18 21 23 23 22 19 19 21 22 23 24 20 10 8 9 14 20 21 21 21 21 23 24 24 24 24 25 27
12 9 6 6 5 4 5 5 3 2 3 4 4 4 3 4 4 2 2 4 6 2 3 4 2 3 1 1 3 4 4 2 2 5 4 3 5 5 3 3 4 6 7 4 3 2 3 3 6 7 8 9 9 10 12 14 15 17 17 18 20 21 19 17 17 17 18 20 22 21 16 9 7 10 9 12 17 16 14 14 15 19 21 21 22 24 25 27
14 12 9 5 4 5 4 2 1 3 4 2 2 3 2 1 4 5 3 4 3 6 7 7 4 4 3 5 5 2 3 2 7 11 12 13 16 16 15 15 14 9 5 5 4 4 4 4 5 6 7 9 11 12 12 12 13 14 12 13 17 18 17 16 16 15 12 10 10 8 4 3 6 10 10 13 14 12 13 13 13 17 19 19 20 22 23 26
Wind_Direction
320 326 328 332 336 339 344 348 351 355 360 3 6 9 11 13 17 17 18 18 16 13 8 6 3 360 358 354 351 350 346 339 330 317 310 316 318 297 272 256 252 256 260 261 257 258 233 207 213 214 217 224 235 235 216 211 192 172 115 142 237 205 201 196 193 206 194 255 289 317 300 235 264 273 261 272 261 255 256 249 245 244 245 248 252 253 252 255
312 316 317 321 322 325 329 330 335 338 341 345 351 353 354 356 355 356 359 358 358 357 355 352 350 348 346 345 344 343 341 338 327 314 312 2 356 342 300 261 250 248 249 254 253 253 237 224 224 216 218 223 234 231 212 209 194 180 133 164 229 204 212 209 204 223 221 263 289 299 295 253 254 275 274 266 257 253 253 250 244 246 250 252 254 253 252 252
306 309 310 312 311 314 314 314 319 319 323 326 329 331 334 335 334 336 336 336 339 338 339 338 338 338 336 336 336 337 339 335 326 318 0 356 345 344 330 280 250 245 243 249 249 237 229 229 232 218 218 227 228 221 207 200 200 203 177 221 244 217 235 248 245 252 257 273 290 292 289 260 266 274 258 251 263 258 243 246 240 242 255 260 258 256 254 252
301 304 304 306 305 306 305 306 307 307 311 311 314 316 317 319 319 319 319 320 323 323 326 327 328 330 330 330 331 332 337 334 325 83 358 339 340 343 340 314 265 247 239 240 238 229 227 224 231 222 216 228 224 218 214 204 200 193 178 211 238 193 234 257 256 264 273 279 274 278 291 281 282 274 249 252 277 268 241 248 249 249 264 271 265 261 256 252
298 300 301 301 300 300 300 300 299 300 301 302 305 306 307 309 308 310 311 311 312 314 317 317 320 322 322 323 324 326 338 344 151 13 335 330 341 345 351 340 309 268 243 234 234 231 227 224 227 218 215 229 201 194 226 212 197 183 212 229 237 198 233 265 267 274 279 280 272 277 288 286 287 270 252 244 243 262 260 265 268 266 273 276 271 266 258 252
297 298 299 299 299 298 297 296 295 295 295 297 297 298 300 300 301 303 303 305 307 309 311 312 314 315 317 318 316 318 325 302 279 314 319 316 324 328 338 332 325 303 261 238 236 232 227 225 221 210 208 228 195 194 229 212 198 223 245 237 246 238 241 268 272 274 277 276 273 275 279 283 284 274 265 243 245 266 273 276 277 277 278 275 270 264 257 253
295 297 297 298 298 297 297 296 295 294 293 293 292 293 293 293 294 295 296 300 300 303 306 307 309 310 312 312 310 309 294 273 293 303 301 300 306 314 318 314 311 300 277 252 242 231 227 223 219 216 206 249 225 213 232 216 199 224 263 243 253 250 249 267 273 273 275 272 273 277 281 279 269 273 282 263 266 274 278 279 279 280 277 269 264 259 257 257
294 294 295 296 296 296 296 296 296 295 294 293 292 292 290 291 290 290 291 292 294 296 298 299 302 303 306 306 306 302 285 286 297 292 292 299 299 308 311 304 298 290 283 270 252 235 231 224 223 223 213 239 231 213 222 233 212 214 246 252 255 257 260 272 276 274 273 271 275 277 273 270 267 271 281 274 277 281 282 284 284 281 274 265 260 258 257 257
291 292 292 293 293 293 293 293 294 293 293 293 293 292 291 291 289 289 289 288 290 290 291 293 294 296 298 297 300 296 287 292 294 286 297 299 297 301 301 298 291 283 281 271 253 234 229 228 230 228 234 246 234 230 206 214 237 213 234 257 265 267 274 280 278 275 273 270 270 264 266 273 275 279 275 274 279 287 288 286 287 280 269 263 260 258 256 256
287 288 288 289 289 289 289 289 290 289 290 290 290 290 290 289 289 289 288 288 288 287 288 288 288 290 290 289 288 279 284 291 291 293 297 295 295 295 293 292 284 276 274 268 252 239 235 237 240 234 244 256 241 237 198 196 242 245 257 272 274 278 285 283 277 276 274 270 259 230 255 272 275 280 267 274 279 286 287 286 285 277 270 269 264 261 259 257
285 286 286 286 286 286 287 287 287 287 286 286 286 286 286 286 287 286 286 287 286 286 285 283 285 282 281 281 266 257 281 290 291 292 293 292 291 289 289 285 277 271 265 263 257 253 249 244 244 233 238 249 245 245 223 229 252 281 298 297 285 293 297 284 274 274 267 268 256 223 244 272 273 202 248 270 276 275 279 282 281 275 273 273 269 267 262 259
284 285 285 285 286 286 286 287 286 287 286 286 286 285 285 284 284 284 283 284 284 284 283 281 280 274 275 271 261 265 282 286 285 287 286 288 286 285 286 280 273 268 260 258 255 258 254 242 236 230 234 239 272 296 242 246 273 295 316 317 294 320 308 284 273 266 239 248 255 205 240 276 256 233 250 268 275 271 273 278 279 277 275 274 270 268 264 265
286 286 287 287 288 288 288 288 288 288 287 287 287 286 285 284 283 283 282 282 282 281 281 279 276 272 265 263 269 276 282 280 279 280 280 281 281 281 280 275 271 262 256 254 253 254 249 245 236 232 244 246 253 274 269 291 314 299 314 354 299 335 307 280 275 244 213 223 224 163 243 266 245 254 260 272 275 269 267 272 277 278 278 277 273 269 267 270
292 292 293 293 294 295 293 293 292 291 290 290 290 288 286 284 284 283 282 282 280 278 278 276 274 269 252 260 275 280 277 277 276 276 278 277 276 276 273 271 268 259 253 251 251 251 246 246 237 233 245 245 253 272 290 326 333 298 302 296 301 309 279 285 37 139 226 246 189 165 255 254 255 267 267 273 275 271 265 267 275 277 278 279 276 272 270 270
302 303 304 304 304 303 301 300 299 297 297 297 297 295 292 290 287 285 285 282 279 276 274 272 270 262 249 264 275 278 276 274 274 278 278 273 269 269 268 267 263 256 251 247 247 248 244 234 222 224 239 248 258 274 319 341 347 5 278 280 287 222 268 299 308 214 229 256 174 167 252 257 254 266 272 277 274 268 262 264 272 274 276 278 276 273 269 268
312 314 313 315 314 312 311 310 308 306 306 307 306 304 301 298 295 292 289 285 280 274 269 267 264 251 242 271 274 274 273 271 275 279 273 268 265 263 263 261 256 249 244 243 244 244 237 216 211 220 230 249 243 171 36 351 317 345 216 251 264 250 275 312 303 248 221 230 177 195 236 263 257 259 273 283 279 267 258 263 270 272 275 276 274 271 270 271
319 320 320 322 322 319 319 317 316 314 313 315 313 310 308 306 303 298 292 286 278 268 261 258 256 245 242 263 270 271 272 274 277 275 269 267 262 258 256 250 245 240 235 236 237 229 209 194 194 220 235 240 140 106 49 295 272 288 211 240 248 248 259 288 299 287 225 195 208 229 237 253 260 264 276 281 283 277 256 262 269 270 273 272 272 271 271 273
324 327 328 330 329 326 324 322 321 318 318 320 319 316 314 312 308 302 293 284 272 255 251 234 211 230 251 250 259 270 275 276 270 266 269 263 252 250 246 241 239 229 218 219 219 193 181 181 165 162 275 240 163 132 188 234 236 236 220 237 253 243 247 249 268 287 311 228 219 242 256 255 264 272 275 275 278 277 263 265 269 269 270 270 271 271 271 272
326 332 335 337 335 329 328 328 326 326 324 324 325 323 319 317 313 303 292 275 246 221 240 209 189 206 258 247 256 267 269 266 262 263 263 257 248 241 232 232 227 201 181 172 197 181 169 142 111 144 228 232 216 177 202 226 230 231 219 229 255 257 249 239 249 256 283 284 258 253 262 261 267 268 270 273 275 276 271 269 268 269 270 270 269 269 269 269
315 328 335 338 338 334 333 333 333 335 333 329 333 334 332 335 327 304 294 271 253 250 257 238 222 239 256 260 265 266 264 262 264 264 259 254 247 232 217 208 189 178 174 158 187 186 171 170 167 186 217 226 216 196 211 229 242 259 244 245 253 261 265 254 259 263 243 283 264 245 264 269 267 267 267 270 273 276 276 272 268 267 267 268 269 268 268 268
304 316 326 333 339 337 335 336 337 341 342 339 342 348 356 1 344 307 307 292 279 270 263 260 251 250 256 260 260 260 263 263 261 259 256 249 234 215 202 185 155 176 197 153 140 161 175 200 210 209 222 228 218 205 219 238 263 270 252 264 265 250 265 263 265 272 233 230 260 243 268 272 265 267 268 269 268 264 268 270 269 268 267 267 268 269 269 270
297 303 315 323 334 336 331 337 339 342 347 345 346 355 360 350 330 309 311 294 288 284 271 267 259 253 256 259 256 254 256 262 259 253 246 232 214 203 190 174 169 188 159 131 121 218 209 226 226 222 230 248 250 190 187 222 237 244 244 271 271 252 273 272 259 273 265 205 271 263 266 269 266 263 261 263 259 251 257 262 266 269 268 267 266 267 269 271
291 296 303 307 321 332 327 336 340 342 348 347 350 356 351 341 331 319 314 280 284 289 275 265 257 253 256 257 254 249 243 245 253 251 244 223 201 199 192 164 166 164 139 179 202 213 225 234 231 231 237 255 260 220 144 227 236 218 221 245 264 256 268 266 251 298 313 219 271 284 274 272 266 259 251 250 253 253 255 259 265 267 265 263 264 265 266 267
292 299 301 301 312 322 322 331 340 344 345 348 353 352 347 341 335 328 317 274 274 283 271 265 256 253 255 255 252 244 237 236 242 251 243 219 194 192 200 168 138 154 186 205 212 225 238 240 226 223 220 215 241 245 206 257 258 219 211 222 251 251 246 252 276 337 321 266 276 297 291 281 238 236 244 242 249 254 253 256 263 265 262 262 263 264 263 263
291 297 300 303 309 315 317 323 336 343 342 343 344 346 347 342 337 335 329 294 279 273 263 262 256 252 253 252 249 240 238 239 240 246 243 223 206 194 189 175 168 204 211 210 222 240 250 249 212 185 205 210 222 240 217 223 252 250 217 214 237 249 254 263 290 337 335 297 305 353 309 292 196 198 234 239 244 251 249 250 255 259 261 260 260 264 265 264
289 290 293 297 305 312 314 318 329 336 338 336 336 341 342 340 344 341 343 346 291 264 228 236 237 249 245 243 233 201 204 263 249 239 233 229 218 208 186 172 191 227 201 192 228 250 251 239 207 184 200 200 203 244 224 202 240 269 229 211 231 246 258 262 273 305 279 257 294 58 321 288 280 201 218 228 233 245 247 245 248 253 258 258 258 263 268 269
279 280 283 287 297 305 307 312 321 328 332 327 328 335 333 339 355 349 355 346 288 218 149 188 179 150 263 210 178 154 178 287 288 222 213 213 212 208 214 191 195 239 164 138 272 241 205 214 207 201 200 179 187 242 227 185 212 266 235 197 207 220 235 237 232 230 235 274 302 123 138 277 287 256 195 208 218 241 253 249 251 252 256 258 260 265 270 274
269 269 273 277 285 291 294 301 313 320 319 316 321 326 331 336 344 0 31 304 286 122 118 195 169 143 340 170 176 167 339 324 31 171 198 202 202 200 232 226 189 224 164 154 246 241 167 192 206 191 180 187 207 228 195 156 195 256 198 159 173 192 208 181 181 210 249 350 299 213 135 250 279 276 121 185 208 232 247 243 247 252 255 260 264 269 274 278
266 264 266 268 270 275 279 284 299 309 303 308 316 321 332 327 335 23 84 255 302 80 113 193 169 225 60 142 189 217 345 10 38 118 142 186 199 188 263 251 197 239 235 199 238 260 200 201 195 165 164 214 220 225 161 159 199 226 109 89 72 77 80 105 150 158 87 305 247 195 162 216 277 285 79 87 188 221 241 242 248 255 260 263 266 270 275 280
265 265 266 265 262 265 270 272 281 291 291 296 305 324 340 320 355 31 233 245 340 353 159 160 209 231 94 113 221 261 264 324 39 134 117 139 190 198 246 294 196 221 265 259 251 257 250 129 135 174 196 204 168 101 161 172 183 128 100 56 33 28 28 55 54 86 68 277 232 184 184 190 270 288 122 162 215 219 233 245 258 261 260 262 264 268 274 280
265 265 263 263 262 262 264 266 272 275 274 283 293 324 347 353 66 194 239 263 8 289 78 72 300 69 95 113 280 287 219 272 216 154 161 118 168 199 153 267 225 72 316 287 269 274 257 200 204 206 196 153 106 87 12 65 114 119 104 66 29 332 2 27 350 50 183 266 230 185 186 187 233 261 167 254 271 245 225 226 245 255 258 260 262 267 276 283
266 265 263 264 262 259 257 261 266 260 262 274 264 276 25 15 241 215 247 1 352 261 86 225 292 83 90 69 255 243 164 258 215 157 177 159 163 191 186 202 182 56 299 250 266 308 265 225 217 180 181 171 149 131 345 2 91 117 114 129 129 312 343 348 310 97 216 260 252 185 178 207 243 256 269 274 275 255 230 220 232 243 259 265 265 268 277 282
266 264 266 265 261 258 256 257 258 252 256 253 214 151 86 230 248 204 191 289 249 251 92 144 344 89 122 67 266 237 161 231 202 171 183 150 169 235 239 221 173 196 262 219 303 314 285 273 195 138 232 195 168 168 228 258 171 158 155 159 168 204 243 257 258 259 260 266 279 172 168 248 275 271 234 241 256 260 252 242 244 247 255 264 268 271 274 277
267 265 265 262 259 258 256 254 249 244 245 221 185 115 117 229 246 130 160 225 246 328 21 109 37 21 139 224 247 207 208 252 183 154 177 131 157 258 257 240 191 183 245 224 297 221 251 287 198 163 214 183 178 202 203 161 157 187 166 145 177 188 195 222 218 250 266 273 301 198 176 225 265 260 224 231 266 287 274 256 255 258 258 263 271 273 273 275
267 267 264 260 257 254 255 252 239 229 227 206 173 149 216 233 250 238 223 232 280 309 304 350 29 342 288 257 262 222 217 252 122 118 179 171 185 218 213 219 198 178 167 215 259 175 221 271 235 191 149 156 181 221 191 120 114 220 131 121 220 201 173 218 235 236 255 290 290 234 220 235 238 265 258 251 269 274 271 273 277 274 268 268 271 270 270 272
268 267 264 261 258 253 254 247 227 220 218 199 165 212 226 232 222 205 218 191 187 210 318 327 294 246 274 260 278 265 201 218 206 121 215 203 214 222 213 217 196 184 184 197 231 203 235 275 267 323 33 137 174 278 180 138 214 200 134 188 233 152 147 216 252 255 51 268 262 241 256 273 300 292 283 289 283 276 284 287 279 278 280 279 273 269 271 276
270 268 266 263 260 257 249 237 222 221 213 191 192 228 224 231 204 201 214 148 155 146 112 297 243 214 256 247 256 269 179 216 213 172 206 219 239 214 206 237 203 188 202 211 229 243 249 278 271 170 235 301 355 339 333 20 128 134 179 222 210 66 135 181 237 301 233 246 251 254 265 274 291 283 308 9 338 307 285 270 274 290 289 286 287 289 294 299
272 272 269 266 266 260 243 229 220 217 205 182 229 233 225 229 202 199 217 216 245 241 213 245 241 221 234 241 256 241 213 229 184 170 211 225 237 193 169 231 206 194 213 216 226 311 278 281 280 153 221 298 1 341 294 350 96 141 205 251 102 188 240 163 177 219 232 244 244 243 260 268 253 249 281 311 296 284 275 278 323 317 296 294 306 317 323 324
277 280 276 272 267 253 236 222 213 207 196 178 232 230 227 233 221 216 223 229 243 242 236 240 237 244 241 243 264 248 221 227 185 188 222 219 234 203 163 218 215 209 217 198 192 278 73 258 263 138 165 307 17 93 206 281 319 77 303 319 38 189 205 184 190 193 227 248 252 240 248 259 249 235 236 250 248 251 273 296 318 290 291 307 315 325 332 334
277 274 273 258 225 231 219 208 204 198 191 218 226 229 244 244 244 235 227 225 221 217 237 239 221 238 252 255 264 260 237 232 215 221 224 214 243 241 189 173 134 192 222 185 195 243 127 243 252 251 306 288 287 198 192 201 213 182 240 269 273 245 239 268 244 174 219 249 255 248 243 247 255 232 199 230 238 212 221 261 268 264 290 311 322 332 337 339
238 246 267 225 210 214 194 191 198 195 203 232 229 239 249 250 258 247 232 226 223 226 234 231 216 235 255 261 261 257 238 231 226 227 225 221 237 249 222 179 162 151 89 84 184 225 175 239 247 289 277 262 245 210 184 179 176 178 206 236 246 240 259 277 255 217 213 244 250 256 258 251 269 272 228 207 217 203 204 240 273 291 302 312 320 323 327 331
203 229 251 199 216 209 183 180 204 207 211 226 229 239 243 247 255 256 241 225 221 232 239 235 227 236 251 254 256 259 248 235 223 221 236 232 223 228 218 178 166 151 109 148 223 213 153 147 195 230 247 256 267 254 205 203 227 238 230 237 248 237 226 246 252 245 244 257 260 266 265 244 233 271 268 263 256 242 246 264 274 297 306 313 314 309 310 317
210 233 226 171 210 209 189 188 224 206 219 246 242 243 240 242 248 253 248 222 212 223 231 234 232 234 240 240 245 251 243 230 214 219 253 260 232 230 221 194 170 102 46 273 248 202 120 117 218 239 248 265 279 278 248 211 218 246 239 223 230 235 233 237 246 255 258 259 261 264 261 234 193 262 275 283 281 267 262 268 272 299 306 308 307 304 304 309
248 256 247 217 206 206 196 201 220 211 229 245 246 245 242 244 241 245 247 210 198 214 226 237 237 236 237 236 238 231 221 233 232 232 243 251 246 235 235 245 261 275 210 231 230 190 200 208 206 251 275 271 276 280 273 217 171 222 236 215 219 229 237 247 254 258 257 247 244 254 259 245 224 254 270 279 281 279 272 269 271 286 297 302 302 300 298 298
291 273 260 238 217 219 231 243 232 227 225 232 243 245 244 249 243 243 246 234 223 222 233 254 265 275 257 261 266 243 221 227 244 255 236 245 281 247 280 306 299 276 255 258 254 209 228 226 197 238 263 260 261 259 260 262 185 206 232 218 221 224 229 243 253 246 251 243 238 248 259 257 246 250 261 269 275 280 280 281 283 285 293 296 294 294 296 302
295 273 280 264 225 229 247 254 252 259 217 231 240 234 237 247 250 243 236 238 237 230 236 259 275 296 248 229 262 255 241 231 234 249 247 259 293 316 348 346 338 331 316 303 306 305 240 246 224 235 245 247 256 258 256 265 254 251 256 235 229 231 230 238 245 244 255 257 247 246 256 262 256 250 258 264 270 280 288 293 298 300 300 299 302 314 329 338
278 257 238 297 245 231 243 254 259 261 240 243 240 238 239 240 254 243 214 222 233 226 237 245 239 245 237 233 250 253 257 248 240 248 258 274 301 315 337 349 359 10 11 356 345 332 225 260 244 243 250 247 256 264 263 265 260 258 265 259 253 253 242 239 245 248 256 265 260 252 256 262 258 251 258 264 270 279 287 293 301 311 323 339 3 15 12 5
230 267 261 280 292 245 234 255 274 280 292 283 276 310 276 252 261 254 215 242 266 199 226 242 232 327 11 333 277 264 300 267 252 263 303 0 351 326 336 342 9 19 23 8 353 357 224 267 257 253 263 259 258 264 262 263 260 253 255 257 257 257 253 251 252 249 247 253 260 263 261 261 260 256 256 264 277 285 294 309 324 342 4 26 33 25 19 15
236 266 279 291 295 273 282 313 328 312 287 284 265 263 261 257 260 257 233 316 299 234 227 239 45 44 33 12 330 307 327 279 258 326 56 18 341 321 332 308 301 25 25 359 339 323 240 279 281 270 278 272 265 265 263 262 262 255 249 248 251 254 254 255 256 256 255 256 260 265 263 261 265 273 281 313 342 349 350 353 5 19 24 26 25 20 18 14
248 254 289 309 301 284 283 285 292 296 267 263 247 241 245 247 253 265 28 237 251 281 255 144 57 27 311 22 30 272 286 275 258 284 47 17 349 354 357 303 294 350 355 337 316 292 269 313 329 310 295 283 276 272 268 266 266 264 260 254 253 254 254 255 259 262 263 262 261 261 261 262 286 331 349 7 12 15 13 11 19 24 19 17 17 14 10 7
246 257 289 310 292 270 266 262 257 245 254 247 230 242 255 240 252 314 337 245 232 206 107 103 50 354 267 257 287 246 210 175 223 256 258 255 265 263 252 256 279 313 317 284 237 274 281 292 315 310 289 282 284 279 281 288 286 278 272 264 257 255 254 255 256 256 260 265 267 268 270 278 339 354 356 10 12 13 10 7 12 14 15 18 14 7 5 3
246 257 267 266 261 259 255 283 294 241 244 242 221 258 269 76 38 19 313 261 175 128 83 56 23 345 328 296 293 216 177 255 270 268 269 255 248 250 247 244 246 250 270 278 255 236 241 263 289 289 283 286 284 283 292 303 292 279 273 267 258 257 260 260 260 265 276 287 281 280 297 321 340 351 359 3 4 1 349 345 357 7 8 12 10 3 1 359